Hermiston, OR

12:26 AM PDT on April 20, 2018 (GMT -0700)
Hermiston Municipal

Weather History for KHRI - April, 2013

Change the Weather History Date:

Sunday, April 28, 2013

  Actual Average Record
Temperature  
Mean Temperature 61 °F 54 °F  
Max Temperature 69 °F 70 °F 96 °F (1926)
Min Temperature 53 °F 39 °F 28 °F (1935)
Degree Days  
Heating Degree Days 4    
Growing Degree Days 11 (Base 50)    
Moisture  
Dew Point 38 °F    
Average Humidity 43    
Maximum Humidity 64    
Minimum Humidity 28    
Precipitation  
Precipitation 0.00 in 0.03 in 0.88 in (1995)
Month to date precipitation 0.96  
Year to date precipitation 4.35  
Sea Level Pressure  
Sea Level Pressure 30.06 in    
Wind  
Wind Speed 15 mph (WSW)    
Max Wind Speed 29 mph    
Max Gust Speed 39 mph    
Visibility 10 miles    
Events      
T = Trace of Precipitation, MM = Missing Value Source: NWS Daily Summary

Daily Weather History Graph

Daily Weather History Graph

Search for Another Location

Airport or City:

Astronomy

Apr. 28, 2013 Rise Set
Actual Time 5:48 AM PDT 8:01 PM PDT
Civil Twilight 5:15 AM PDT 8:34 PM PDT
Nautical Twilight 4:35 AM PDT 9:14 PM PDT
Astronomical Twilight 3:50 AM PDT 10:00 PM PDT
Moon 11:41 PM PDT (4/28) 8:04 AM PDT (4/28)
Length of Visible Light 15h 18m
Length of Day
14h 12m
Waning Gibbous, 88% of the Moon is Illuminated
Apr 28
Waning Gibbous
May 2
Last Quarter
May 9
New
May 17
First Quarter
May 24
Full

Hourly Weather History & Observations

Time (PDT) Temp. Dew Point Humidity Pressure Visibility Wind Dir Wind Speed Gust Speed Precip Events Conditions
12:53 AM 59.0 °F 39.0 °F 48% 30.11 in 10.0 mi WSW 11.5 mph - N/A   Overcast
1:53 AM 57.9 °F 39.0 °F 49% 30.10 in 10.0 mi WSW 9.2 mph - N/A   Overcast
2:53 AM 57.0 °F 37.9 °F 49% 30.10 in 10.0 mi WSW 13.8 mph - N/A   Scattered Clouds
4:53 AM 53.1 °F 39.9 °F 61% 30.12 in 10.0 mi West 8.1 mph - N/A   Scattered Clouds
6:53 AM 54.0 °F 42.1 °F 64% 30.12 in 10.0 mi WSW 12.7 mph - N/A   Overcast
7:53 AM 55.0 °F 42.1 °F 62% 30.13 in 10.0 mi WSW 11.5 mph - N/A   Overcast
8:53 AM 59.0 °F 43.0 °F 55% 30.13 in 10.0 mi West 13.8 mph 21.9 mph N/A   Partly Cloudy
9:53 AM 62.1 °F 41.0 °F 46% 30.13 in 10.0 mi WSW 18.4 mph 26.5 mph N/A   Partly Cloudy
10:53 AM 64.9 °F 39.0 °F 39% 30.13 in 10.0 mi WSW 20.7 mph 27.6 mph N/A   Clear
11:53 AM 66.0 °F 37.0 °F 34% 30.12 in 10.0 mi West 18.4 mph 28.8 mph N/A   Partly Cloudy
12:53 PM 66.9 °F 36.0 °F 32% 30.09 in 10.0 mi West 25.3 mph 34.5 mph N/A   Clear
1:53 PM 68.0 °F 36.0 °F 31% 30.08 in 10.0 mi WSW 28.8 mph 39.1 mph N/A   Clear
2:53 PM 69.1 °F 35.1 °F 29% 30.06 in 10.0 mi WSW 25.3 mph 38.0 mph N/A   Clear
3:53 PM 69.1 °F 35.1 °F 29% 30.04 in 10.0 mi West 27.6 mph 38.0 mph N/A   Clear
4:53 PM 66.9 °F 33.1 °F 28% 30.02 in 10.0 mi WSW 20.7 mph 35.7 mph N/A   Clear
5:53 PM 64.0 °F 35.1 °F 34% 30.02 in 10.0 mi WSW 23.0 mph 29.9 mph N/A   Clear
6:53 PM 62.1 °F 35.1 °F 37% 30.01 in 10.0 mi West 20.7 mph 28.8 mph N/A   Clear
7:53 PM 61.0 °F 34.0 °F 36% 30.00 in 10.0 mi West 13.8 mph 24.2 mph N/A   Clear
8:53 PM 60.1 °F 34.0 °F 38% 29.99 in 10.0 mi West 15.0 mph - N/A   Clear
9:53 PM 57.9 °F 36.0 °F 44% 29.99 in 10.0 mi SW 9.2 mph - N/A   Overcast
10:53 PM 55.9 °F 37.9 °F 51% 29.97 in 10.0 mi SSW 5.8 mph - N/A   Overcast
11:53 PM 57.9 °F 37.9 °F 47% 29.95 in 10.0 mi WSW 9.2 mph - N/A   Overcast